Regional Weather Roundup
Issued by NWS

Home | Current Version | Previous Version | Text Only | Print | Product List | Glossary On
Versions: 1 2 3 4 5 6 7 8 9 10 11 12 13 14 15 16 17 18 19 20 21 22 23 24 25 26 27 28 29 30 31 32 33 34 35 36 37 38 39 40 41 42 43 44 45 46 47 48 49 50
000
ASUS43 KDMX 211106
RWRIA

WEATHER ROUNDUP FOR IOWA
NATIONAL WEATHER SERVICE DES MOINES IA
500 AM CST SAT JAN 21 2017

NOTE: "FAIR" INDICATES FEW OR NO CLOUDS BELOW 12,000 FEET WITH NO
SIGNIFICANT WEATHER AND/OR OBSTRUCTIONS TO VISIBILITY.

* - THESE STATIONS ARE NOT NWS STATIONS...THUS NOT UNDER NWS
QUALITY CONTROL.  THEY ALSO DO NOT REPORT WEATHER SUCH
AS PRECIPITATION OR FOG.

IAZ001>003-012>014-020>022-031>034-043>046-211200-
   NORTHWEST IOWA

CITY           SKY/WX    TMP DP  RH WIND       PRES   REMARKS
CARROLL *      FOG       36  36 100 CALM      29.36S VSB 1/2
CHEROKEE *     FOG       35  35 100 CALM      29.36F VSB 3/4
DENISON *      MIX PCPN  37  37 100 CALM      29.34S VSB 1/4
LE MARS *      FOG       37  37 100 S3        29.36F VSB 1/2
ORANGE CITY *  DRZL/FOG  36  36 100 CALM      29.35F VSB 1/2
SHELDON *      FOG       34  34 100 SE3       29.34S VSB 3/4
SIOUX CITY     FOG       38  37  97 SE6       29.36S VSB 3/4 WCI  33
SPENCER        FOG       35  35 100 E3        29.36F VSB 1/4
STORM LAKE *   FOG       34  34 100 CALM      29.35F VSB 1/4
$$

IAZ055>058-069>071-079>083-090>094-211200-
   SOUTHWEST IOWA

CITY           SKY/WX    TMP DP  RH WIND       PRES   REMARKS
ATLANTIC *     FOG       39  39 100 SW6       29.37S VSB<1/4 WCI  35
AUDUBON *      FOG       41  39  93 SW3       29.37S VSB 1/2
CLARINDA *     FOG       43  43 100 SW6       29.41R VSB 1/4
COUNCIL BLFS * FOG       41  41 100 SW7       29.38S VSB<1/4
CRESTON *      FOG       43  43 100 S8        29.40S VSB<1/4
HARLAN  *      FOG       37  37 100 CALM      29.39F VSB 1/4
LAMONI         FOG       42  42 100 S5        29.40S VSB 1/4
RED OAK *      FOG       41  41 100 S6        29.39S VSB 1/4
SHENANDOAH *   FOG       41  41 100 SW3       29.40S VSB 1/4
$$

IAZ047>049-059>061-072>074-084-211200-
   CENTRAL IOWA

CITY           SKY/WX    TMP DP  RH WIND       PRES   REMARKS
AMES           FOG       37  37 100 CALM      29.38S VSB 1/4
ANKENY *       FOG       41  41 100 S3        29.40S VSB 1/4
BOONE *        FOG       36  36 100 S5        29.36S VSB<1/4 WCI  32
CHARITON *     FOG       43  43 100 S8        29.40F VSB 1/4
DES MOINES     FOG       43  42  97 S6        29.39S VSB 1/4
GRINNELL*      FOG       43  42  97 S10       29.40F VSB 1/2
KNOXVILLE *    FOG       45  45 100 S7        29.39F VSB 3/4
MARSHALLTOWN   FOG       40  40 100 S9        29.38S VSB 1/4 WCI  34
NEWTON *       FOG       43  43 100 S10       29.39S VSB<1/4
PELLA *        CLOUDY    45  44  98 S7        29.42F FOG
PERRY *        FOG       37  37  98 S6        29.38S VSB 1/2 WCI  32
$$

IAZ004>006-015-016-023>025-035-036-211200-
   NORTH CENTRAL IOWA

CITY           SKY/WX    TMP DP  RH WIND       PRES   REMARKS
ALGONA *       CLOUDY    36  36 100 SE3       29.37S FOG
CLARION *      CLOUDY    36  36 100 E6        29.37S FOG     WCI  31
ESTHERVILLE    FOG       33  33 100 E3        29.37F VSB 1/2
FORT DODGE *   CLOUDY    36  34  93 E3        29.37F VSB 3/4
MASON CITY     LGT RAIN  34  34 100 E6        29.38F FOG     WCI  29
FOREST CITY *  HVY RAIN  34  34 100 E5        29.37F WCI  30
WEBSTER CITY * FOG       36 N/A N/A SE5       29.35F VSB<1/4 WCI  32
IOWA FALLS *   FOG       37  37  98 SE5       29.38F VSB 1/4 WCI  33
$$

IAZ007>011-017>019-026>030-037>042-050>054-066-211200-
   NORTHEAST IOWA

CITY           SKY/WX    TMP DP  RH WIND       PRES   REMARKS
CEDAR RAPIDS   FOG       43  43 100 S8        29.40S VSB 1/4
CHARLES CITY * CLOUDY    36  36 100 E12       29.39F FOG     WCI  27
CLINTON *      LGT RAIN  45  45 100 SE9       29.45F VSB 1
DECORAH *      MIX PCPN  37  36  93 SE8G18    29.41R VSB 1/2 WCI  31
DUBUQUE        FOG       40  40 100 SE9       29.43F VSB 1/2 WCI  34
MONTICELLO *   FOG       43  43 100 SE9       29.41F VSB 1/2
OELWEIN *      FOG       37  37 100 SE12      29.41S VSB 1/4 WCI  30
WATERLOO       FOG       40  39  97 SE9       29.40S VSB 3/4 WCI  34
$$

IAZ064-065-067-068-078-211200-
   EAST CENTRAL IOWA

CITY           SKY/WX    TMP DP  RH WIND       PRES   REMARKS
DAVENPORT      PTCLDY    44  43  96 S12       29.44F FOG
IOWA CITY      CLOUDY    45  44  97 S7        29.43F FOG
MUSCATINE *    FOG       43  43 100 SW3       29.43F VSB<1/4
QUAD CITIES    CLEAR     47  44  90 S8        29.43F
$$

IAZ062-063-075>077-085>089-095>099-211200-
   SOUTHEAST IOWA

CITY           SKY/WX    TMP DP  RH WIND       PRES   REMARKS
BURLINGTON     CLEAR     45  45 100 S9        29.43F
FAIRFIELD *    CLOUDY    45  45 100 S10       29.41S FOG
FORT MADISON * CLEAR     45  45 100 S9        29.44S
KEOKUK *       CLEAR     48 N/A N/A S9        29.42F
OSKALOOSA *    FOG       42  42  99 S6        29.41F VSB 3/4
OTTUMWA        CLOUDY    45  43  93 S10       29.40S FOG
WASHINGTON *   FOG       45  45 100 S9        29.43S VSB 1
$$

ABBREVIATIONS USED IN REMARKS
   TC - TEMPERATURES IN CELSIUS
  WCI - WIND CHILL INDEX
   HX - HEAT INDEX
  VSB - VISIBILITY
$$





USA.gov is the U.S. government's official web portal to all federal, state and local government web resources and services.